Vertical_Velocity
2 1 -2 2 1 -3 2 -0 -1 2 2 -1 -3 5 -0 0 -4 0 -6 2 -3 3 0 1 1 1 1 1 2 1 -5 -0 -3 -1 -5 0 -0 1 1 1 1 -1 -1 -1 -1
2 2 2 0 0 -1 1 1 2 3 1 -1 -1 3 2 -2 -1 -2 10 2 1 0 -2 -2 -2 1 1 1 1 -4 -2 -4 -3 -1 -1 -0 -0 -0 -0 0 -1 -1 0 1 -0
2 1 -1 0 0 1 -1 1 1 -0 0 1 -1 4 -0 -1 2 0 0 0 1 2 1 3 4 1 0 1 -0 0 -3 -2 -3 -1 2 0 -0 1 -0 -1 -5 -8 -2 -0 -1
2 0 0 -1 -1 -2 0 1 1 2 1 1 -1 4 -0 -0 -2 2 1 1 3 1 1 1 4 -0 0 -0 1 -1 -1 -1 -2 1 0 -0 1 -0 1 -17 1 -0 4 3 -2
3 1 2 1 0 -1 0 2 1 1 0 1 1 2 -1 2 -5 2 0 -2 0 -1 1 -1 -1 -1 -1 -0 1 1 -2 2 -2 -0 -0 3 -3 -4 -8 -1 2 2 -1 -1 1
2 2 0 1 1 1 1 1 3 1 1 -0 1 0 2 -2 2 2 1 -0 -0 0 0 1 -2 -2 -1 -0 -1 0 0 -2 -2 -4 2 1 -1 0 -10 0 -1 2 -1 -1 -2
1 1 1 0 1 2 2 1 -0 2 2 1 2 1 2 -14 2 2 1 2 3 2 -0 0 3 2 2 -1 1 0 -1 -2 -1 -0 -3 -1 -3 -3 3 1 -1 1 1 1 -2
1 1 1 1 1 1 1 1 0 1 1 2 1 1 -10 0 2 0 1 -0 0 1 3 2 2 1 -1 2 -3 -1 -2 -2 -4 0 0 -2 -10 -4 1 2 -1 -0 1 0 -0
0 -0 1 0 1 -0 -0 0 1 1 2 2 2 1 -7 1 1 3 4 2 3 3 2 1 1 0 1 -2 -4 -2 -2 1 -8 -0 -0 -3 -4 -3 2 -0 -1 0 -1 -2 -0
-1 -1 -0 0 1 1 -1 1 1 1 1 -0 1 1 3 -1 2 1 3 4 1 3 1 1 0 -2 -1 -2 -5 -3 1 -0 -1 -1 1 1 -5 -4 -5 2 -1 -4 -2 -1 1
-1 -1 -0 1 -0 1 1 0 -0 -1 -1 -7 -1 1 4 2 2 2 4 1 1 1 -2 0 -3 -4 -7 -3 -1 -0 0 0 -2 -2 2 -2 -1 -4 -4 -2 1 4 -2 1 -0
-0 -1 0 2 1 1 0 1 0 0 -6 2 3 -1 1 3 -2 2 3 -1 -0 -1 1 -4 -3 -6 -0 1 1 1 1 -4 -5 -1 1 -1 -5 -3 -0 4 3 3 -2 -2 -3
-1 -1 0 2 1 1 1 -0 -0 -0 -1 -2 1 -0 -1 0 0 -2 3 1 -2 1 -0 -3 -8 -1 0 1 2 -1 -0 -1 -2 -2 -1 1 -5 -2 4 -2 -1 -2 6 2 3
-2 -0 -1 1 2 2 1 -0 -0 -1 -6 -3 1 1 2 2 -1 3 7 -1 1 -5 -1 -2 -5 1 1 -0 -1 2 -2 1 1 -0 -4 -3 -7 -2 1 2 -3 -1 -2 -1 -2
-3 -1 -1 2 1 1 0 0 -0 -1 -7 -3 -0 1 1 -2 -0 -1 3 2 -1 -1 -5 -16 -0 1 1 -7 -2 -10 -0 -1 -0 0 1 0 -0 -8 -1 -3 -2 1 -1 0 2
-2 -1 1 2 2 1 1 0 -0 -18 -12 -2 0 -0 -1 -0 1 0 -0 1 2 1 1 -4 -0 1 -7 -1 -2 -1 -0 -2 -1 -2 1 -5 -6 -5 0 4 -2 -2 -1 0 -2
0 1 1 3 1 1 0 -0 -14 -7 -6 -3 -1 -1 -0 -1 -0 -0 -0 -3 -1 -3 -2 -3 -2 -2 -0 1 0 -1 -4 -4 -3 -2 -9 -0 2 7 2 2 5 5 1 -0 1
0 2 2 -1 -0 1 1 -8 1 1 0 -1 -0 -1 -2 0 1 -0 -0 0 -3 -1 0 0 -15 -1 -2 -4 -3 -2 -6 -5 -2 -1 -4 -1 -3 7 3 3 2 2 4 2 -2
2 3 2 1 0 -0 -1 -5 2 1 1 1 -3 -3 -0 -2 -1 -3 -0 0 2 1 -1 -1 -6 -4 1 -0 -6 -1 -2 -7 -0 -1 1 -4 4 5 -0 -1 -2 -1 -2 -1 -1
1 1 -1 2 1 0 -9 -1 -0 1 1 -0 0 -1 -0 -0 -4 -4 -1 2 1 1 0 2 -2 -1 -5 -2 -1 -5 -4 -3 -2 -1 -1 -2 0 3 -2 -1 -1 -4 -0 -0 0
-0 -1 2 0 1 -5 -4 2 -0 3 -1 -1 0 -1 1 1 1 -0 2 5 -0 -1 -2 1 2 -7 -8 -1 1 -9 -3 -5 1 3 2 0 -0 5 4 3 3 2 2 1 0
0 -5 -0 1 -16 0 -1 1 2 0 -2 -1 -3 -1 0 0 -0 -0 1 0 2 1 -1 -1 0 -0 -7 -0 -0 0 2 1 2 -6 -1 3 5 2 1 2 0 0 0 2 3
-2 -1 0 -1 -5 -0 0 1 -1 -3 1 -1 -0 -1 0 0 -4 0 -0 4 -1 -1 0 -3 -4 -4 -11 -2 -5 -2 1 0 1 2 -2 4 2 1 -2 -1 0 -0 -0 -1 -1
-1 -5 -6 -13 1 -4 -1 1 0 -1 -0 -0 0 -4 -4 -2 -1 -2 -1 -0 0 1 1 5 0 -6 -7 -3 0 -2 -1 -0 1 2 -1 -1 2 -4 -2 0 -1 -1 1 -1 -1
-2 1 1 -1 -4 -1 -3 -1 -0 -2 -0 -1 1 -2 -1 -0 -1 -0 -0 -3 -6 -3 0 -4 -2 1 -1 0 0 -0 0 0 -2 -2 -5 -3 -1 1 2 2 4 4 -2 -2 -3
-3 -3 -1 -0 1 -3 -1 2 -0 -2 -0 1 -3 0 -0 -1 -3 -2 1 0 -2 -5 -1 -2 -4 0 -3 -0 -1 -1 -0 -0 0 -0 0 0 0 2 -1 -1 -2 0 -2 -2 -1
1 0 -1 3 -0 -3 1 1 1 -0 1 -1 -0 0 1 -2 1 -1 -1 -0 -3 0 0 1 -0 -2 -4 -0 0 -2 1 1 1 0 2 0 -2 0 -4 -3 -1 1 -0 -0 1
Height
1475 1473 1473 1472 1472 1472 1472 1473 1473 1475 1474 1474 1475 1475 1477 1475 1476 1475 1473 1476 1476 1478 1479 1480 1482 1484 1487 1488 1489 1490 1499 1503 1492 1490 1481 1477 1477 1478 1479 1478 1478 1478 1477 1478 1478
1475 1473 1472 1470 1470 1471 1471 1471 1472 1472 1472 1473 1473 1474 1475 1474 1474 1471 1472 1472 1474 1476 1478 1479 1481 1484 1487 1488 1489 1490 1501 1492 1482 1479 1478 1477 1478 1478 1478 1477 1476 1475 1475 1476 1476
1475 1472 1470 1469 1468 1468 1468 1470 1470 1470 1470 1472 1472 1473 1473 1473 1472 1467 1467 1469 1473 1475 1477 1479 1482 1485 1486 1487 1487 1488 1491 1483 1478 1477 1477 1477 1477 1476 1476 1476 1471 1471 1472 1473 1474
1475 1472 1470 1468 1467 1467 1467 1467 1468 1468 1469 1470 1471 1472 1472 1473 1473 1466 1466 1469 1472 1474 1476 1478 1481 1485 1486 1487 1484 1487 1481 1480 1477 1476 1477 1477 1475 1474 1472 1465 1468 1468 1470 1470 1471
1476 1472 1470 1467 1466 1465 1465 1465 1465 1467 1467 1469 1470 1470 1471 1472 1467 1466 1467 1469 1472 1474 1475 1478 1480 1483 1485 1484 1484 1484 1479 1477 1475 1474 1474 1475 1472 1473 1463 1463 1465 1465 1466 1466 1468
1476 1473 1469 1466 1465 1464 1463 1464 1464 1465 1466 1467 1468 1469 1471 1471 1466 1466 1467 1469 1471 1473 1475 1478 1480 1481 1483 1482 1483 1478 1476 1473 1471 1470 1471 1471 1469 1470 1454 1458 1459 1460 1461 1463 1464
1475 1472 1469 1466 1464 1464 1463 1463 1463 1464 1465 1466 1467 1468 1468 1465 1465 1465 1467 1470 1472 1473 1475 1477 1480 1482 1482 1481 1479 1477 1478 1472 1466 1465 1468 1468 1469 1465 1452 1457 1457 1457 1458 1460 1461
1474 1472 1469 1466 1464 1463 1462 1462 1462 1462 1463 1464 1465 1467 1464 1461 1462 1464 1466 1469 1471 1473 1475 1476 1479 1481 1481 1480 1479 1479 1478 1482 1464 1465 1465 1466 1470 1453 1453 1454 1454 1457 1458 1458 1458
1473 1471 1468 1466 1464 1462 1461 1461 1461 1461 1462 1464 1466 1466 1462 1459 1460 1463 1466 1468 1470 1472 1474 1476 1478 1480 1481 1485 1490 1485 1488 1484 1474 1464 1465 1468 1466 1454 1453 1454 1455 1456 1457 1457 1456
1471 1469 1468 1466 1463 1462 1461 1460 1459 1460 1462 1464 1465 1468 1460 1458 1458 1461 1465 1468 1470 1471 1474 1476 1477 1481 1485 1488 1496 1486 1488 1483 1477 1466 1467 1469 1466 1456 1452 1455 1455 1454 1454 1453 1452
1469 1468 1466 1465 1462 1461 1461 1461 1463 1463 1461 1457 1458 1458 1456 1458 1459 1461 1464 1467 1469 1471 1475 1475 1481 1481 1471 1475 1474 1473 1479 1477 1471 1465 1466 1466 1462 1455 1453 1455 1452 1459 1456 1453 1451
1466 1464 1464 1462 1461 1460 1459 1459 1459 1461 1457 1454 1455 1457 1458 1458 1459 1461 1465 1468 1468 1472 1473 1479 1480 1467 1470 1473 1476 1478 1480 1478 1470 1463 1468 1465 1459 1452 1452 1465 1465 1463 1460 1456 1448
1462 1461 1460 1460 1459 1459 1458 1458 1458 1457 1458 1454 1452 1453 1454 1459 1458 1459 1463 1465 1467 1472 1473 1477 1467 1463 1468 1472 1476 1475 1478 1478 1474 1465 1463 1462 1458 1452 1454 1459 1464 1466 1468 1462 1457
1458 1457 1456 1457 1459 1456 1457 1457 1457 1457 1464 1456 1454 1454 1455 1456 1459 1459 1461 1464 1466 1469 1471 1472 1461 1463 1468 1470 1472 1476 1466 1466 1470 1473 1479 1461 1474 1457 1450 1463 1468 1472 1470 1469 1462
1454 1453 1452 1453 1454 1455 1457 1456 1456 1456 1483 1456 1454 1454 1455 1458 1459 1459 1460 1462 1464 1464 1468 1465 1459 1462 1467 1464 1462 1463 1459 1463 1465 1472 1469 1467 1474 1458 1464 1469 1478 1479 1480 1477 1472
1451 1449 1448 1449 1451 1453 1454 1455 1456 1467 1481 1457 1454 1455 1457 1457 1459 1460 1461 1463 1463 1463 1463 1463 1459 1459 1456 1453 1456 1456 1459 1465 1471 1474 1479 1460 1466 1455 1489 1493 1490 1490 1488 1484 1477
1450 1448 1448 1448 1450 1451 1453 1455 1468 1473 1458 1463 1458 1456 1457 1462 1460 1460 1462 1469 1473 1470 1470 1464 1456 1451 1451 1455 1455 1456 1466 1479 1476 1483 1469 1461 1461 1489 1498 1499 1501 1499 1496 1491 1485
1450 1449 1448 1448 1448 1449 1452 1457 1463 1468 1467 1462 1460 1459 1464 1467 1465 1463 1465 1474 1477 1476 1474 1474 1469 1451 1451 1453 1455 1461 1463 1475 1470 1470 1464 1463 1459 1489 1503 1504 1505 1503 1502 1496 1488
1450 1450 1449 1448 1448 1449 1452 1467 1474 1474 1473 1469 1464 1465 1469 1471 1470 1468 1480 1483 1485 1484 1480 1481 1467 1453 1451 1449 1451 1459 1464 1451 1459 1457 1468 1455 1497 1501 1503 1505 1506 1506 1503 1500 1496
1450 1450 1448 1448 1448 1450 1455 1470 1475 1477 1474 1471 1469 1473 1476 1479 1477 1478 1475 1489 1486 1487 1486 1487 1479 1460 1454 1450 1450 1452 1452 1459 1465 1463 1457 1446 1461 1482 1506 1511 1511 1510 1509 1506 1502
1450 1450 1450 1449 1449 1450 1467 1473 1476 1479 1476 1476 1477 1478 1479 1484 1483 1482 1482 1491 1489 1489 1487 1489 1485 1465 1462 1456 1458 1462 1462 1467 1459 1452 1445 1440 1464 1514 1519 1521 1519 1518 1515 1511 1506
1449 1452 1450 1450 1453 1465 1475 1476 1479 1481 1480 1480 1482 1486 1488 1490 1489 1486 1487 1490 1493 1491 1495 1491 1492 1487 1474 1465 1470 1477 1485 1484 1473 1463 1479 1465 1489 1523 1523 1522 1521 1521 1518 1515 1511
1450 1452 1452 1450 1466 1476 1478 1482 1486 1486 1487 1487 1492 1492 1494 1494 1497 1494 1491 1497 1496 1496 1499 1494 1497 1503 1471 1472 1474 1483 1499 1501 1497 1491 1484 1476 1493 1526 1526 1524 1523 1521 1519 1516 1512
1453 1458 1459 1458 1469 1473 1479 1486 1488 1489 1490 1492 1495 1496 1499 1501 1500 1503 1498 1496 1496 1497 1495 1493 1497 1502 1509 1497 1498 1500 1510 1511 1504 1502 1501 1491 1514 1529 1529 1528 1526 1523 1521 1518 1515
1456 1470 1472 1478 1478 1477 1479 1488 1491 1493 1494 1494 1499 1501 1503 1504 1504 1501 1500 1501 1498 1496 1494 1496 1510 1497 1494 1494 1496 1519 1518 1516 1522 1533 1526 1535 1534 1535 1533 1530 1528 1525 1522 1519 1514
1462 1469 1474 1479 1482 1482 1485 1494 1495 1497 1497 1497 1500 1502 1501 1503 1503 1505 1502 1504 1504 1499 1500 1502 1513 1498 1504 1493 1493 1524 1524 1520 1523 1529 1532 1537 1538 1536 1533 1530 1527 1525 1522 1518 1515
1469 1471 1473 1484 1486 1487 1494 1496 1497 1496 1498 1498 1499 1500 1500 1499 1499 1498 1498 1498 1500 1501 1504 1506 1505 1520 1524 1498 1503 1514 1532 1525 1529 1533 1533 1528 1538 1535 1532 1530 1526 1524 1522 1518 1513